User: anonymous   Login
Location: Bailen
(14.1842°N, 120.7958°E)
Time: 10:31:58
(UTC+00:00)
Language:

In-Cosmos 22 - Orbit

View from above orbital plane
View from above orbital plane
View from above satellite
View from above satellite

Ground track
Ground track

The orbit is defined by the following mean orbital elements,

1 12645U          26071.13929814 +.00000000 +00000-0 +62665-4 0 00003
2 12645  81.2169 303.3158 0063642 127.0642 233.6376 14.18959773    07
Epoch (UTC): 12 March 2026 03:20:35
Eccentricity: 0.0063642
inclination: 81.2169°
perigee height: 783 km
apogee height: 875 km
right ascension of ascending node: 303.3158°
argument of perigee: 127.0642°
revolutions per day: 14.18959773
mean anomaly at epoch: 233.6376°

The dashed part of the orbit path shows where the satellite is in the earth's shadow,  

DLR